| time (UTC) | temp F | wind direction | speed MPH | gust MPH | rain 1hr in | rain 24hr in | rain mn in | humidity % | barometer mb |
| 20260507062612 | 43 | 274 | 0.0 | 0.0 | 0.00 | 0.00 | 0.00 | 73 | 976.7 |
| 20260507061931 | 43 | 256 | 0.0 | 0.0 | 0.00 | 0.00 | 0.00 | 72 | 976.8 |
| 20260507061253 | 44 | 274 | 0.0 | 0.0 | 0.00 | 0.00 | 0.00 | 72 | 976.8 |
| 20260507060612 | 44 | 271 | 0.0 | 0.0 | 0.00 | 0.00 | 0.00 | 72 | 976.9 |
| 20260507055254 | 44 | 333 | 1.0 | 0.0 | 0.00 | 0.00 | 0.00 | 72 | 976.9 |
| 20260507054617 | 44 | 318 | 0.0 | 0.0 | 0.00 | 0.00 | 0.00 | 72 | 976.9 |
| 20260507053936 | 44 | 318 | 0.0 | 0.0 | 0.00 | 0.00 | 0.00 | 72 | 976.9 |
| 20260507053258 | 44 | 318 | 0.0 | 0.0 | 0.00 | 0.00 | 0.00 | 72 | 976.9 |
| 20260507052617 | 44 | 304 | 1.0 | 0.0 | 0.00 | 0.00 | 0.00 | 72 | 977.0 |
| 20260507051940 | 44 | 309 | 0.0 | 0.0 | 0.00 | 0.00 | 0.00 | 71 | 977.0 |
| 20260507051259 | 44 | 248 | 0.0 | 0.0 | 0.00 | 0.00 | 0.00 | 70 | 977.0 |
| 20260507050621 | 44 | 221 | 1.0 | 0.0 | 0.00 | 0.00 | 0.00 | 70 | 976.9 |
| 20260507045941 | 44 | 287 | 0.0 | 0.0 | 0.00 | 0.00 | 0.00 | 70 | 976.9 |
| 20260507045306 | 44 | 287 | 0.0 | 0.0 | 0.00 | 0.00 | 0.00 | 70 | 977.0 |
| 20260507044622 | 44 | 287 | 0.0 | 0.0 | 0.00 | 0.00 | 0.00 | 69 | 977.0 |
| 20260507043945 | 44 | 287 | 0.0 | 0.0 | 0.00 | 0.00 | 0.00 | 68 | 976.8 |
| 20260507043304 | 44 | 287 | 0.0 | 0.0 | 0.00 | 0.00 | 0.00 | 68 | 976.9 |
| 20260507042626 | 44 | 287 | 0.0 | 0.0 | 0.00 | 0.00 | 0.00 | 67 | 976.8 |
| 20260507041945 | 44 | 287 | 0.0 | 0.0 | 0.00 | 0.00 | 0.00 | 67 | 976.8 |
| 20260507041308 | 44 | 287 | 0.0 | 0.0 | 0.00 | 0.00 | 0.00 | 67 | 976.9 |
| 20260507040627 | 45 | 287 | 0.0 | 0.0 | 0.00 | 0.00 | 0.00 | 67 | 976.9 |
| 20260507035950 | 45 | 287 | 0.0 | 0.0 | 0.00 | 0.00 | 0.00 | 67 | 976.8 |
| 20260507035309 | 45 | 287 | 0.0 | 0.0 | 0.00 | 0.00 | 0.00 | 66 | 976.8 |
| 20260507034631 | 45 | 287 | 0.0 | 0.0 | 0.00 | 0.00 | 0.00 | 66 | 976.7 |
| 20260507033950 | 45 | 287 | 0.0 | 0.0 | 0.00 | 0.00 | 0.00 | 66 | 976.8 |
| 20260507033313 | 45 | 287 | 0.0 | 0.0 | 0.00 | 0.00 | 0.00 | 65 | 976.8 |
| 20260507032632 | 45 | 287 | 0.0 | 0.0 | 0.00 | 0.00 | 0.00 | 65 | 976.9 |
| 20260507031954 | 45 | 287 | 0.0 | 0.0 | 0.00 | 0.00 | 0.00 | 65 | 976.9 |
| 20260507031313 | 45 | 287 | 0.0 | 0.0 | 0.00 | 0.00 | 0.00 | 65 | 976.9 |
| 20260507030636 | 46 | 287 | 0.0 | 0.0 | 0.00 | 0.00 | 0.00 | 65 | 976.9 |
| 20260507025955 | 46 | 287 | 0.0 | 0.0 | 0.00 | 0.00 | 0.00 | 64 | 976.9 |
| 20260507025318 | 46 | 287 | 0.0 | 0.0 | 0.00 | 0.00 | 0.00 | 64 | 977.0 |
| 20260507024637 | 46 | 287 | 0.0 | 0.0 | 0.00 | 0.00 | 0.00 | 64 | 977.0 |
| 20260507023959 | 46 | 287 | 0.0 | 0.0 | 0.00 | 0.00 | 0.00 | 63 | 976.9 |
| 20260507023318 | 46 | 253 | 0.0 | 0.0 | 0.00 | 0.00 | 0.00 | 64 | 976.9 |
| 20260507022641 | 46 | 188 | 0.0 | 0.0 | 0.00 | 0.00 | 0.00 | 64 | 976.9 |
| 20260507022000 | 46 | 304 | 1.0 | 0.0 | 0.00 | 0.00 | 0.00 | 63 | 976.9 |
| 20260507021322 | 46 | 308 | 0.0 | 0.0 | 0.00 | 0.00 | 0.00 | 63 | 976.9 |
| 20260507020641 | 46 | 308 | 0.0 | 0.0 | 0.00 | 0.00 | 0.00 | 63 | 976.7 |
| 20260507020004 | 47 | 308 | 0.0 | 0.0 | 0.00 | 0.00 | 0.00 | 63 | 976.7 |
| 20260507015323 | 47 | 308 | 2.0 | 0.0 | 0.00 | 0.00 | 0.00 | 63 | 976.6 |
| 20260507014646 | 47 | 240 | 1.0 | 0.0 | 0.00 | 0.00 | 0.00 | 63 | 976.6 |
| 20260507014005 | 47 | 235 | 3.0 | 0.0 | 0.00 | 0.00 | 0.00 | 63 | 976.6 |
| 20260507013327 | 47 | 240 | 0.0 | 0.0 | 0.00 | 0.00 | 0.00 | 62 | 976.5 |
| 20260507012646 | 47 | 240 | 0.0 | 0.0 | 0.00 | 0.00 | 0.00 | 62 | 976.5 |
| 20260507012009 | 47 | 240 | 0.0 | 0.0 | 0.00 | 0.00 | 0.00 | 61 | 976.4 |
| 20260507011328 | 47 | 240 | 0.0 | 0.0 | 0.00 | 0.00 | 0.00 | 61 | 976.3 |
| 20260507010650 | 48 | 240 | 0.0 | 0.0 | 0.00 | 0.00 | 0.00 | 60 | 976.3 |
| 20260507010009 | 48 | 240 | 0.0 | 0.0 | 0.00 | 0.00 | 0.00 | 59 | 976.2 |
| 20260507004651 | 48 | 255 | 4.0 | 5.0 | 0.00 | 0.00 | 0.00 | 59 | 976.1 |
| 20260507004014 | 48 | 208 | 0.0 | 0.0 | 0.00 | 0.00 | 0.00 | 59 | 975.9 |
| 20260507003333 | 48 | 236 | 1.0 | 4.0 | 0.00 | 0.00 | 0.00 | 58 | 975.9 |
| 20260507002655 | 49 | 326 | 1.0 | 4.0 | 0.00 | 0.00 | 0.00 | 58 | 975.8 |
| 20260507002014 | 49 | 257 | 2.0 | 0.0 | 0.00 | 0.00 | 0.00 | 57 | 975.7 |
| 20260507001337 | 49 | 278 | 0.0 | 4.0 | 0.00 | 0.00 | 0.00 | 56 | 975.5 |
| 20260507000018 | 50 | 314 | 3.0 | 5.0 | 0.00 | 0.00 | 0.00 | 54 | 975.2 |
| 20260506235338 | 50 | 274 | 2.0 | 3.0 | 0.00 | 0.00 | 0.00 | 53 | 975.1 |
| 20260506234700 | 50 | 359 | 4.0 | 0.0 | 0.00 | 0.00 | 0.00 | 52 | 975.2 |
| 20260506234019 | 51 | 276 | 2.0 | 10.0 | 0.00 | 0.00 | 0.00 | 52 | 975.2 |
| 20260506233342 | 51 | 287 | 3.0 | 4.0 | 0.00 | 0.00 | 0.00 | 52 | 975.3 |
| 20260506232701 | 50 | 250 | 5.0 | 0.0 | 0.00 | 0.00 | 0.00 | 51 | 975.2 |
| 20260506232023 | 51 | 215 | 6.0 | 3.0 | 0.00 | 0.00 | 0.00 | 52 | 975.1 |
| 20260506231343 | 51 | 328 | 0.0 | 5.0 | 0.00 | 0.00 | 0.00 | 51 | 975.0 |
| 20260506230705 | 51 | 245 | 5.0 | 0.0 | 0.00 | 0.00 | 0.00 | 51 | 975.0 |
| 20260506230024 | 51 | 238 | 1.0 | 0.0 | 0.00 | 0.00 | 0.00 | 51 | 975.0 |
| 20260506225347 | 52 | 250 | 3.0 | 4.0 | 0.00 | 0.00 | 0.00 | 50 | 975.0 |
| 20260506224706 | 52 | 256 | 2.0 | 0.0 | 0.00 | 0.00 | 0.00 | 50 | 975.0 |
| 20260506224029 | 52 | 212 | 0.0 | 0.0 | 0.00 | 0.00 | 0.00 | 50 | 975.0 |
| 20260506223348 | 52 | 250 | 4.0 | 0.0 | 0.00 | 0.00 | 0.00 | 49 | 974.9 |
| 20260506222710 | 52 | 335 | 7.0 | 3.0 | 0.00 | 0.00 | 0.00 | 48 | 974.9 |
| 20260506222029 | 52 | 283 | 4.0 | 0.0 | 0.00 | 0.00 | 0.00 | 49 | 974.9 |
| 20260506221352 | 52 | 276 | 2.0 | 3.0 | 0.00 | 0.00 | 0.00 | 49 | 974.9 |
| 20260506220711 | 52 | 278 | 0.0 | 6.0 | 0.00 | 0.00 | 0.00 | 48 | 974.8 |
| 20260506220034 | 52 | 288 | 4.0 | 5.0 | 0.00 | 0.00 | 0.00 | 49 | 974.7 |
| 20260506215353 | 53 | 217 | 2.0 | 0.0 | 0.00 | 0.00 | 0.00 | 47 | 974.8 |
| 20260506214715 | 53 | 294 | 3.0 | 11.0 | 0.00 | 0.00 | 0.00 | 47 | 974.8 |
| 20260506214034 | 53 | 236 | 3.0 | 6.0 | 0.00 | 0.00 | 0.00 | 48 | 974.8 |
| 20260506213357 | 53 | 229 | 1.0 | 0.0 | 0.00 | 0.00 | 0.00 | 48 | 974.6 |
| 20260506212716 | 53 | 235 | 0.0 | 0.0 | 0.00 | 0.00 | 0.00 | 47 | 974.7 |
| 20260506212039 | 53 | 269 | 6.0 | 3.0 | 0.00 | 0.00 | 0.00 | 46 | 974.7 |
| 20260506211358 | 52 | 203 | 6.0 | 7.0 | 0.00 | 0.00 | 0.00 | 47 | 974.5 |
| 20260506210721 | 53 | 264 | 9.0 | 7.0 | 0.00 | 0.00 | 0.00 | 45 | 974.8 |
| 20260506205402 | 53 | 256 | 6.0 | 5.0 | 0.00 | 0.00 | 0.00 | 45 | 974.7 |
| 20260506204721 | 53 | 173 | 4.0 | 0.0 | 0.00 | 0.00 | 0.00 | 45 | 974.6 |
| 20260506204044 | 53 | 3 | 5.0 | 0.0 | 0.00 | 0.00 | 0.00 | 46 | 974.6 |
| 20260506202726 | 53 | 259 | 4.0 | 0.0 | 0.00 | 0.00 | 0.00 | 45 | 974.7 |
| 20260506202045 | 53 | 256 | 8.0 | 6.0 | 0.00 | 0.00 | 0.00 | 44 | 974.7 |
| 20260506201407 | 54 | 266 | 2.0 | 0.0 | 0.00 | 0.00 | 0.00 | 44 | 974.8 |
| 20260506200727 | 54 | 281 | 2.0 | 5.0 | 0.00 | 0.00 | 0.00 | 45 | 974.8 |
| 20260506200049 | 53 | 298 | 1.0 | 5.0 | 0.00 | 0.00 | 0.00 | 45 | 974.9 |
| 20260506195408 | 54 | 257 | 5.0 | 5.0 | 0.00 | 0.00 | 0.00 | 44 | 975.1 |
| 20260506194731 | 54 | 262 | 9.0 | 9.0 | 0.00 | 0.00 | 0.00 | 44 | 975.2 |
| 20260506194050 | 53 | 146 | 1.0 | 2.0 | 0.00 | 0.00 | 0.00 | 47 | 975.1 |
| 20260506193413 | 52 | 260 | 2.0 | 3.0 | 0.00 | 0.00 | 0.00 | 48 | 975.1 |
| 20260506192732 | 52 | 224 | 2.0 | 3.0 | 0.00 | 0.00 | 0.00 | 47 | 975.2 |
| 20260506192054 | 52 | 280 | 6.0 | 9.0 | 0.00 | 0.00 | 0.00 | 46 | 975.0 |
| 20260506191414 | 52 | 170 | 1.0 | 0.0 | 0.00 | 0.00 | 0.00 | 46 | 975.2 |
| 20260506190736 | 52 | 255 | 2.0 | 3.0 | 0.00 | 0.00 | 0.00 | 47 | 975.3 |
| 20260506185418 | 52 | 280 | 6.0 | 4.0 | 0.00 | 0.00 | 0.00 | 47 | 975.3 |
| 20260506184737 | 51 | 255 | 5.0 | 3.0 | 0.00 | 0.00 | 0.00 | 48 | 975.2 |
| 20260506184100 | 51 | 312 | 6.0 | 7.0 | 0.00 | 0.00 | 0.00 | 48 | 975.3 |
| 20260506183419 | 51 | 255 | 6.0 | 7.0 | 0.00 | 0.00 | 0.00 | 49 | 975.1 |
| 20260506182742 | 51 | 231 | 3.0 | 3.0 | 0.00 | 0.00 | 0.00 | 49 | 975.2 |
| 20260506182101 | 51 | 338 | 5.0 | 6.0 | 0.00 | 0.00 | 0.00 | 49 | 975.3 |
| 20260506181423 | 51 | 203 | 2.0 | 0.0 | 0.00 | 0.00 | 0.00 | 50 | 975.3 |
| 20260506180742 | 51 | 238 | 7.0 | 9.0 | 0.00 | 0.00 | 0.00 | 49 | 975.5 |
| 20260506180105 | 51 | 252 | 5.0 | 0.0 | 0.00 | 0.00 | 0.00 | 49 | 975.4 |
| 20260506175424 | 51 | 323 | 2.0 | 0.0 | 0.00 | 0.00 | 0.00 | 50 | 975.4 |
| 20260506174747 | 51 | 264 | 4.0 | 6.0 | 0.00 | 0.00 | 0.00 | 50 | 975.4 |
| 20260506174153 | 51 | 231 | 0.0 | 0.0 | 0.00 | 0.00 | 0.00 | 51 | 975.6 |
| 20260506174106 | 51 | 231 | 0.0 | 0.0 | 0.00 | 0.00 | 0.00 | 51 | 975.6 |
| 20260506173526 | 50 | 288 | 3.0 | 3.0 | 0.00 | 0.00 | 0.00 | 52 | 975.6 |
| 20260506173429 | 50 | 288 | 3.0 | 3.0 | 0.00 | 0.00 | 0.00 | 52 | 975.6 |
| 20260506172927 | 50 | 240 | 6.0 | 4.0 | 0.00 | 0.00 | 0.00 | 52 | 975.7 |
| 20260506172748 | 50 | 240 | 6.0 | 4.0 | 0.00 | 0.00 | 0.00 | 52 | 975.7 |
| 20260506172110 | 50 | 236 | 4.0 | 0.0 | 0.00 | 0.00 | 0.00 | 53 | 975.7 |
| 20260506171430 | 50 | 194 | 4.0 | 3.0 | 0.00 | 0.00 | 0.00 | 54 | 975.8 |
| 20260506170752 | 50 | 309 | 3.0 | 4.0 | 0.00 | 0.00 | 0.00 | 54 | 975.8 |
| 20260506170111 | 50 | 329 | 2.0 | 0.0 | 0.00 | 0.00 | 0.00 | 54 | 975.9 |
| 20260506165434 | 50 | 217 | 0.0 | 0.0 | 0.00 | 0.00 | 0.00 | 54 | 975.8 |
| 20260506164753 | 49 | 328 | 2.0 | 0.0 | 0.00 | 0.00 | 0.00 | 54 | 975.8 |
| 20260506164116 | 49 | 238 | 5.0 | 5.0 | 0.00 | 0.00 | 0.00 | 56 | 975.8 |
| 20260506163435 | 49 | 195 | 2.0 | 0.0 | 0.00 | 0.00 | 0.00 | 55 | 975.8 |
| 20260506162758 | 49 | 290 | 4.0 | 7.0 | 0.00 | 0.00 | 0.00 | 55 | 975.8 |
| 20260506162117 | 50 | 225 | 3.0 | 0.0 | 0.00 | 0.00 | 0.00 | 54 | 975.7 |
| 20260506161439 | 50 | 312 | 4.0 | 0.0 | 0.00 | 0.00 | 0.00 | 53 | 975.8 |
| 20260506160758 | 50 | 281 | 4.0 | 5.0 | 0.00 | 0.00 | 0.00 | 54 | 975.8 |
| 20260506160618 | 50 | 285 | 5.0 | 10.0 | 0.00 | 0.00 | 0.00 | 55 | 975.8 |
| 20260506160214 | 50 | 285 | 5.0 | 10.0 | 0.00 | 0.00 | 0.00 | 55 | 975.8 |
| 20260506160121 | 50 | 285 | 5.0 | 10.0 | 0.00 | 0.00 | 0.00 | 55 | 975.8 |
| 20260506155440 | 49 | 180 | 3.0 | 2.0 | 0.00 | 0.00 | 0.00 | 55 | 975.8 |
| 20260506154844 | 49 | 187 | 0.0 | 5.0 | 0.00 | 0.00 | 0.00 | 54 | 975.8 |
| 20260506154803 | 49 | 187 | 0.0 | 5.0 | 0.00 | 0.00 | 0.00 | 54 | 975.8 |
| 20260506154122 | 50 | 248 | 8.0 | 14.0 | 0.00 | 0.00 | 0.00 | 53 | 975.7 |
| 20260506153445 | 49 | 269 | 4.0 | 6.0 | 0.00 | 0.00 | 0.00 | 56 | 975.7 |
| 20260506152804 | 49 | 253 | 5.0 | 3.0 | 0.00 | 0.00 | 0.00 | 56 | 975.6 |
| 20260506152127 | 49 | 280 | 7.0 | 3.0 | 0.00 | 0.00 | 0.00 | 57 | 975.6 |
| 20260506151446 | 49 | 243 | 7.0 | 3.0 | 0.00 | 0.00 | 0.00 | 57 | 975.5 |
| 20260506150808 | 49 | 148 | 4.0 | 0.0 | 0.00 | 0.00 | 0.00 | 58 | 975.6 |
| 20260506150128 | 49 | 166 | 3.0 | 0.0 | 0.00 | 0.00 | 0.00 | 59 | 975.6 |
| 20260506144809 | 49 | 159 | 1.0 | 0.0 | 0.00 | 0.00 | 0.00 | 64 | 975.4 |
| 20260506144132 | 48 | 176 | 4.0 | 0.0 | 0.00 | 0.00 | 0.00 | 64 | 975.6 |
| 20260506143451 | 48 | 153 | 3.0 | 6.0 | 0.00 | 0.00 | 0.00 | 68 | 975.6 |
| 20260506142814 | 47 | 162 | 0.0 | 0.0 | 0.00 | 0.00 | 0.00 | 68 | 975.7 |
| 20260506142133 | 47 | 165 | 5.0 | 0.0 | 0.00 | 0.00 | 0.00 | 68 | 975.7 |
| 20260506141456 | 47 | 158 | 2.0 | 0.0 | 0.00 | 0.00 | 0.00 | 69 | 975.6 |
| 20260506140815 | 46 | 184 | 0.0 | 0.0 | 0.00 | 0.00 | 0.00 | 70 | 975.7 |
| 20260506140137 | 46 | 110 | 0.0 | 0.0 | 0.00 | 0.00 | 0.00 | 73 | 975.7 |
| 20260506135553 | 46 | 110 | 0.0 | 0.0 | 0.00 | 0.00 | 0.00 | 74 | 975.7 |
| 20260506135457 | 46 | 110 | 0.0 | 0.0 | 0.00 | 0.00 | 0.00 | 74 | 975.7 |
| 20260506134902 | 45 | 110 | 0.0 | 0.0 | 0.00 | 0.00 | 0.00 | 78 | 975.7 |
| 20260506134819 | 45 | 110 | 0.0 | 0.0 | 0.00 | 0.00 | 0.00 | 78 | 975.7 |
| 20260506134355 | 45 | 24 | 5.0 | 0.0 | 0.00 | 0.00 | 0.00 | 77 | 975.7 |
| 20260506134138 | 45 | 24 | 5.0 | 0.0 | 0.00 | 0.00 | 0.00 | 77 | 975.7 |
| 20260506133501 | 44 | 60 | 0.0 | 0.0 | 0.00 | 0.00 | 0.00 | 79 | 975.8 |
| 20260506132902 | 44 | 84 | 2.0 | 0.0 | 0.00 | 0.00 | 0.00 | 80 | 975.7 |
| 20260506132820 | 44 | 84 | 2.0 | 0.0 | 0.00 | 0.00 | 0.00 | 80 | 975.7 |
| 20260506132231 | 43 | 56 | 0.0 | 0.0 | 0.00 | 0.00 | 0.00 | 82 | 975.8 |
| 20260506132143 | 43 | 56 | 0.0 | 0.0 | 0.00 | 0.00 | 0.00 | 82 | 975.8 |
| 20260506131631 | 43 | 48 | 0.0 | 5.0 | 0.00 | 0.00 | 0.00 | 84 | 975.9 |
| 20260506131502 | 43 | 48 | 0.0 | 5.0 | 0.00 | 0.00 | 0.00 | 84 | 975.9 |
| 20260506130825 | 43 | 13 | 4.0 | 5.0 | 0.00 | 0.00 | 0.00 | 85 | 976.1 |
| 20260506130144 | 42 | 90 | 1.0 | 6.0 | 0.00 | 0.00 | 0.00 | 87 | 976.1 |
| 20260506125606 | 42 | 80 | 3.0 | 7.0 | 0.00 | 0.00 | 0.00 | 87 | 976.1 |
| 20260506125506 | 42 | 80 | 3.0 | 7.0 | 0.00 | 0.00 | 0.00 | 87 | 976.1 |
| 20260506124906 | 41 | 107 | 5.0 | 0.0 | 0.00 | 0.00 | 0.00 | 89 | 976.2 |
| 20260506124825 | 41 | 107 | 5.0 | 0.0 | 0.00 | 0.00 | 0.00 | 89 | 976.2 |
| 20260506124148 | 41 | 48 | 5.0 | 0.0 | 0.00 | 0.00 | 0.00 | 91 | 976.1 |
| 20260506123507 | 40 | 53 | 4.0 | 0.0 | 0.00 | 0.00 | 0.00 | 91 | 976.3 |
| 20260506122312 | 39 | 14 | 0.0 | 0.0 | 0.00 | 0.00 | 0.00 | 93 | 976.2 |
| 20260506122149 | 39 | 14 | 0.0 | 0.0 | 0.00 | 0.00 | 0.00 | 93 | 976.2 |
| 20260506121511 | 39 | 14 | 0.0 | 0.0 | 0.00 | 0.00 | 0.00 | 94 | 976.3 |
| 20260506120910 | 38 | 14 | 0.0 | 0.0 | 0.00 | 0.00 | 0.00 | 95 | 976.4 |
| 20260506120831 | 38 | 14 | 0.0 | 0.0 | 0.00 | 0.00 | 0.00 | 95 | 976.4 |
| 20260506120230 | 37 | 14 | 0.0 | 0.0 | 0.00 | 0.00 | 0.00 | 96 | 976.3 |
| 20260506120153 | 37 | 14 | 0.0 | 0.0 | 0.00 | 0.00 | 0.00 | 96 | 976.3 |
| 20260506115512 | 36 | 14 | 0.0 | 0.0 | 0.00 | 0.00 | 0.00 | 97 | 976.2 |
| 20260506114835 | 36 | 15 | 0.0 | 0.0 | 0.00 | 0.00 | 0.00 | 98 | 976.1 |
| 20260506114241 | 35 | 15 | 0.0 | 0.0 | 0.00 | 0.00 | 0.00 | 99 | 976.0 |
| 20260506114154 | 35 | 15 | 0.0 | 0.0 | 0.00 | 0.00 | 0.00 | 99 | 976.0 |
| 20260506113731 | 34 | 15 | 0.0 | 0.0 | 0.00 | 0.00 | 0.00 | 99 | 976.0 |
| 20260506113517 | 34 | 15 | 0.0 | 0.0 | 0.00 | 0.00 | 0.00 | 99 | 976.0 |
| 20260506112158 | 34 | 13 | 5.0 | 4.0 | 0.00 | 0.00 | 0.00 | 100 | 975.9 |
| 20260506111517 | 33 | 24 | 4.0 | 3.0 | 0.00 | 0.00 | 0.00 | 100 | 976.0 |
| 20260506110840 | 33 | 4 | 3.0 | 4.0 | 0.00 | 0.00 | 0.00 | 100 | 975.8 |
| 20260506110159 | 33 | 25 | 5.0 | 5.0 | 0.00 | 0.00 | 0.00 | 99 | 975.8 |
| 20260506105521 | 33 | 20 | 4.0 | 5.0 | 0.00 | 0.00 | 0.00 | 99 | 975.8 |
| 20260506104840 | 34 | 11 | 4.0 | 5.0 | 0.00 | 0.00 | 0.00 | 99 | 975.8 |
| 20260506104357 | 34 | 347 | 4.0 | 5.0 | 0.00 | 0.00 | 0.00 | 99 | 975.9 |
| 20260506104203 | 34 | 347 | 4.0 | 5.0 | 0.00 | 0.00 | 0.00 | 99 | 975.9 |
| 20260506103709 | 34 | 335 | 3.0 | 2.0 | 0.00 | 0.00 | 0.00 | 99 | 975.8 |
| 20260506103522 | 34 | 335 | 3.0 | 2.0 | 0.00 | 0.00 | 0.00 | 99 | 975.8 |
| 20260506102845 | 34 | 353 | 4.0 | 5.0 | 0.00 | 0.00 | 0.00 | 98 | 976.0 |
| 20260506102355 | 34 | 359 | 7.0 | 5.0 | 0.00 | 0.00 | 0.00 | 98 | 975.8 |
| 20260506102204 | 34 | 359 | 7.0 | 5.0 | 0.00 | 0.00 | 0.00 | 98 | 975.8 |
| 20260506101714 | 34 | 356 | 7.0 | 7.0 | 0.00 | 0.00 | 0.00 | 98 | 975.7 |
| 20260506101526 | 34 | 356 | 7.0 | 7.0 | 0.00 | 0.00 | 0.00 | 98 | 975.7 |
| 20260506100845 | 34 | 347 | 4.0 | 5.0 | 0.00 | 0.00 | 0.00 | 98 | 975.8 |
| 20260506100359 | 34 | 328 | 4.0 | 3.0 | 0.00 | 0.00 | 0.00 | 97 | 975.8 |
| 20260506100208 | 34 | 328 | 4.0 | 3.0 | 0.00 | 0.00 | 0.00 | 97 | 975.8 |
| 20260506095527 | 34 | 349 | 4.0 | 6.0 | 0.00 | 0.00 | 0.00 | 97 | 975.7 |
| 20260506094849 | 35 | 6 | 1.0 | 0.0 | 0.00 | 0.00 | 0.00 | 96 | 975.6 |
| 20260506094208 | 35 | 316 | 3.0 | 5.0 | 0.00 | 0.00 | 0.00 | 95 | 975.5 |
| 20260506093531 | 35 | 346 | 4.0 | 3.0 | 0.00 | 0.00 | 0.00 | 95 | 975.5 |
| 20260506092850 | 35 | 332 | 2.0 | 5.0 | 0.00 | 0.00 | 0.00 | 95 | 975.3 |
| 20260506092213 | 35 | 345 | 4.0 | 4.0 | 0.00 | 0.00 | 0.00 | 95 | 975.3 |
| 20260506091532 | 35 | 347 | 0.0 | 0.0 | 0.00 | 0.00 | 0.00 | 94 | 975.1 |
| 20260506090854 | 35 | 353 | 4.0 | 3.0 | 0.00 | 0.00 | 0.00 | 94 | 974.9 |
| 20260506090213 | 35 | 308 | 0.0 | 0.0 | 0.00 | 0.00 | 0.00 | 94 | 974.8 |
| 20260506085536 | 35 | 308 | 0.0 | 0.0 | 0.00 | 0.00 | 0.00 | 93 | 974.7 |
| 20260506084855 | 36 | 343 | 4.0 | 4.0 | 0.00 | 0.00 | 0.00 | 93 | 974.7 |
| 20260506083536 | 36 | 338 | 0.0 | 6.0 | 0.00 | 0.00 | 0.00 | 92 | 974.7 |
| 20260506082859 | 36 | 329 | 0.0 | 0.0 | 0.00 | 0.00 | 0.00 | 93 | 974.8 |
| 20260506082218 | 35 | 333 | 0.0 | 5.0 | 0.00 | 0.00 | 0.00 | 92 | 974.8 |
| 20260506081540 | 35 | 309 | 2.0 | 0.0 | 0.00 | 0.00 | 0.00 | 92 | 974.9 |
| 20260506080859 | 36 | 267 | 0.0 | 0.0 | 0.00 | 0.00 | 0.00 | 91 | 974.8 |
| 20260506080222 | 36 | 267 | 0.0 | 0.0 | 0.00 | 0.00 | 0.00 | 91 | 974.8 |
| 20260506072904 | 36 | 267 | 0.0 | 0.0 | 0.00 | 0.00 | 0.00 | 91 | 974.6 |
| 20260506072426 | 35 | 267 | 0.0 | 0.0 | 0.00 | 0.00 | 0.00 | 91 | 974.5 |
| 20260506072227 | 35 | 267 | 0.0 | 0.0 | 0.00 | 0.00 | 0.00 | 91 | 974.5 |
| 20260506070908 | 36 | 267 | 0.0 | 0.0 | 0.00 | 0.00 | 0.00 | 90 | 974.5 |
| 20260506070227 | 36 | 267 | 0.0 | 0.0 | 0.00 | 0.00 | 0.00 | 89 | 974.5 |